FW1564 Weather Reports


time (UTC)temp
C
wind
direction
speed
KPH
gust
KPH
rain 1hr
cm
rain 24hr
cm
rain mn
cm
humidity
%
barometer
mb
20260507070716 11 12 3.2 4.8 0.00 0.00 0.00 79 1013.7
20260507065731 11 353 1.6 3.2 0.00 0.00 0.00 79 1013.5
20260507064242 11 355 1.6 6.4 0.00 0.00 0.00 77 1013.3
20260507063243 11 344 3.2 4.8 0.00 0.00 0.00 76 1013.3
20260507062242 11 12 3.2 6.4 0.00 0.00 0.00 77 1013.0
20260507061243 11 334 4.8 6.4 0.00 0.00 0.00 78 1013.1
20260507060721 11 341 4.8 9.7 0.00 0.00 0.00 78 1013.2
20260507055247 11 331 6.4 9.7 0.00 0.00 0.00 77 1013.1
20260507054242 11 308 6.4 9.7 0.00 0.00 0.00 77 1013.3
20260507053715 11 318 4.8 9.7 0.00 0.00 0.00 76 1013.3
20260507052242 11 349 4.8 9.7 0.00 0.00 0.00 75 1013.4
20260507051242 11 341 6.4 9.7 0.00 0.00 0.00 75 1013.3
20260507050242 11 348 4.8 6.4 0.00 0.00 0.00 75 1013.2
20260507045242 11 338 4.8 4.8 0.00 0.00 0.00 75 1013.4
20260507044243 11 340 3.2 4.8 0.00 0.00 0.00 75 1013.6
20260507043242 11 346 1.6 6.4 0.00 0.00 0.00 75 1013.5
20260507042724 12 336 3.2 6.4 0.00 0.00 0.00 75 1013.5
20260507041242 11 358 4.8 6.4 0.00 0.00 0.00 74 1013.5
20260507040242 11 329 6.4 9.7 0.00 0.00 0.00 70 1013.8
20260507035242 11 347 4.8 9.7 0.00 0.00 0.00 71 1013.7
20260507034244 11 342 4.8 6.4 0.00 0.00 0.00 69 1013.7
20260507033243 11 345 3.2 9.7 0.00 0.00 0.00 70 1013.7
20260507032243 11 338 4.8 9.7 0.00 0.00 0.00 69 1013.8
20260507031729 11 333 4.8 9.7 0.00 0.00 0.00 68 1013.9
20260507030244 11 343 4.8 9.7 0.00 0.00 0.00 69 1013.9
20260507025244 11 352 4.8 9.7 0.00 0.00 0.00 69 1014.1
20260507024724 11 344 6.4 11.3 0.00 0.00 0.00 68 1013.9
20260507023242 11 351 6.4 11.3 0.00 0.00 0.00 68 1014.2
20260507022736 11 339 6.4 11.3 0.00 0.00 0.00 68 1014.5
20260507021242 11 20 8.0 9.7 0.00 0.00 0.00 69 1014.7
20260507020735 11 339 6.4 11.3 0.00 0.00 0.00 68 1014.5
20260507015242 11 337 8.0 9.7 0.00 0.00 0.00 69 1014.6
20260507014242 10 343 4.8 9.7 0.00 0.00 0.00 73 1014.8
20260507013241 11 345 4.8 9.7 0.00 0.00 0.00 72 1015.1
20260507012242 11 341 6.4 11.3 0.00 0.00 0.00 71 1015.2
20260507011242 11 336 6.4 11.3 0.00 0.00 0.00 70 1015.1
20260507010255 11 347 6.4 9.7 0.00 0.00 0.00 69 1015.5
20260507005242 11 353 4.8 9.7 0.00 0.00 0.00 67 1015.7
20260507004727 11 335 6.4 11.3 0.00 0.00 0.00 67 1015.6
20260507003732 11 341 6.4 12.9 0.00 0.00 0.00 65 1015.7
20260507002242 11 350 9.7 12.9 0.00 0.00 0.00 66 1015.7
20260507001742 11 337 9.7 12.9 0.00 0.00 0.00 64 1015.8
20260507000242 11 342 4.8 11.3 0.00 0.00 0.00 62 1015.9
20260506235244 11 332 6.4 12.9 0.00 0.00 0.00 63 1015.9
20260506234241 11 350 11.3 14.5 0.00 0.00 0.00 65 1015.8
20260506233242 11 334 9.7 12.9 0.00 0.00 0.00 65 1015.8
20260506232247 11 344 11.3 16.1 0.00 0.00 0.00 64 1015.8
20260506231245 12 11 9.7 16.1 0.00 0.00 0.00 64 1015.8
20260506230255 11 347 8.0 12.9 0.00 0.00 0.00 66 1016.0
20260506225244 12 351 8.0 11.3 0.00 0.00 0.00 66 1016.1
20260506224242 12 343 8.0 16.1 0.00 0.00 0.00 64 1016.0
20260506223242 12 333 8.0 14.5 0.00 0.00 0.00 64 1016.2
20260506222244 12 344 8.0 17.7 0.00 0.00 0.00 66 1016.1
20260506221241 12 358 8.0 17.7 0.00 0.00 0.00 65 1016.4
20260506220241 12 357 14.5 17.7 0.00 0.00 0.00 65 1016.5
20260506215244 12 333 11.3 17.7 0.00 0.00 0.00 66 1016.3
20260506214242 12 333 11.3 14.5 0.00 0.00 0.00 66 1016.4
20260506213243 12 350 9.7 14.5 0.00 0.00 0.00 68 1016.4
20260506212243 12 357 9.7 12.9 0.00 0.00 0.00 70 1016.1
20260506211242 12 343 6.4 11.3 0.00 0.00 0.00 72 1016.1
20260506210242 12 337 4.8 14.5 0.00 0.00 0.00 70 1016.2
20260506205243 12 343 6.4 17.7 0.00 0.00 0.00 70 1015.9
20260506204242 12 337 4.8 9.7 0.00 0.00 0.00 72 1016.0
20260506203242 12 344 4.8 9.7 0.00 0.00 0.00 71 1016.0
20260506202243 12 352 6.4 11.3 0.00 0.00 0.00 71 1015.6
20260506201243 12 344 1.6 4.8 0.00 0.00 0.00 72 1015.8
20260506200243 12 341 4.8 6.4 0.00 0.00 0.00 71 1015.5
20260506195243 13 333 1.6 9.7 0.00 0.00 0.00 68 1015.5
20260506194243 13 350 0.0 14.5 0.00 0.00 0.00 68 1015.4
20260506193243 13 338 1.6 4.8 0.00 0.00 0.00 71 1015.4
20260506192242 13 26 1.6 4.8 0.00 0.00 0.00 69 1015.2
20260506191242 13 359 3.2 9.7 0.00 0.00 0.00 73 1015.2
20260506190243 13 23 0.0 1.6 0.00 0.00 0.00 75 1014.9
20260506185244 13 333 0.0 4.8 0.00 0.00 0.00 75 1014.8
20260506184243 13 344 0.0 3.2 0.00 0.00 0.00 74 1014.8
20260506183242 13 251 0.0 4.8 0.00 0.00 0.00 72 1014.7
20260506182230 13 21 1.6 4.8 0.00 0.00 0.00 75 1014.9
20260506181230 13 188 3.2 9.7 0.00 0.00 0.00 77 1014.8
20260506180230 14 268 0.0 9.7 0.00 0.00 0.00 79 1015.1
20260506174708 15 190 4.8 6.4 0.00 0.00 0.00 76 1014.9
20260506173230 15 130 3.2 12.9 0.00 0.00 0.00 76 1015.3
20260506172230 15 129 8.0 11.3 0.00 0.00 0.00 75 1015.3
20260506171230 15 269 0.0 11.3 0.00 0.00 0.00 76 1014.9
20260506170230 15 135 1.6 11.3 0.00 0.00 0.00 76 1015.2
20260506165230 15 97 1.6 12.9 0.00 0.00 0.00 77 1015.2
20260506164231 15 140 8.0 12.9 0.00 0.00 0.00 76 1014.9
20260506163229 15 141 8.0 14.5 0.00 0.00 0.00 75 1015.1
20260506162230 16 175 6.4 12.9 0.00 0.00 0.00 76 1015.2
20260506161709 15 122 4.8 14.5 0.00 0.00 0.00 75 1015.2
20260506160231 15 113 11.3 16.1 0.00 0.00 0.00 78 1015.2
20260506160149 15 134 1.6 14.5 0.00 0.00 0.00 77 1015.4
20260506154231 15 174 6.4 20.9 0.00 0.00 0.00 77 1015.4
20260506153230 15 246 4.8 16.1 0.00 0.00 0.00 76 1015.3
20260506152707 15 130 9.7 20.9 0.00 0.00 0.00 77 1015.3
20260506151231 16 171 9.7 20.9 0.00 0.00 0.00 75 1015.2
20260506150231 16 144 12.9 16.1 0.00 0.00 0.00 74 1015.3
20260506145230 16 102 9.7 20.9 0.00 0.00 0.00 71 1015.3
20260506144230 17 89 9.7 20.9 0.00 0.00 0.00 70 1015.3
20260506143230 17 140 12.9 17.7 0.00 0.00 0.00 71 1015.4
20260506142229 17 226 3.2 17.7 0.00 0.03 0.00 73 1015.7
20260506141243 17 119 9.7 22.5 0.00 0.03 0.00 70 1015.7
20260506140710 17 148 8.0 17.7 0.00 0.03 0.00 71 1015.6
20260506135230 17 112 3.2 20.9 0.00 0.05 0.00 71 1015.5
20260506134715 17 157 6.4 20.9 0.00 0.08 0.00 70 1016.0
20260506133230 17 135 9.7 16.1 0.00 0.08 0.00 69 1016.1
20260506132229 17 131 4.8 14.5 0.00 0.18 0.00 68 1016.2
20260506131230 17 190 8.0 20.9 0.00 0.20 0.00 70 1016.1
20260506130230 17 165 12.9 17.7 0.00 0.20 0.00 68 1016.1
20260506125230 18 122 3.2 6.4 0.00 0.20 0.00 56 1016.3
20260506124231 19 148 6.4 11.3 0.00 0.20 0.00 50 1016.3
20260506123231 18 298 0.0 14.5 0.00 0.20 0.00 55 1016.6
20260506122230 18 277 1.6 12.9 0.00 0.20 0.00 56 1016.5
20260506121230 17 8 4.8 12.9 0.00 0.20 0.00 58 1016.4
20260506120230 17 349 4.8 16.1 0.00 0.20 0.00 58 1016.6
20260506115229 17 99 3.2 14.5 0.00 0.20 0.00 61 1016.8
20260506114230 17 69 3.2 9.7 0.00 0.20 0.00 62 1016.9
20260506113720 16 341 4.8 9.7 0.00 0.20 0.00 63 1016.9
20260506112230 16 148 3.2 9.7 0.00 0.20 0.00 65 1017.0
20260506111230 16 38 4.8 9.7 0.00 0.20 0.00 66 1017.0
20260506110230 16 108 4.8 12.9 0.00 0.20 0.00 66 1017.3
20260506105230 17 307 9.7 9.7 0.00 0.20 0.00 67 1017.3
20260506104230 16 116 1.6 9.7 0.00 0.20 0.00 68 1017.3
20260506103230 16 232 3.2 9.7 0.00 0.20 0.00 72 1017.3
20260506102230 16 314 1.6 4.8 0.00 0.20 0.00 68 1016.9
20260506101704 15 88 1.6 12.9 0.00 0.20 0.00 68 1017.3
20260506100729 16 127 8.0 12.9 0.00 0.20 0.00 72 1016.9
20260506095711 16 103 3.2 4.8 0.00 0.25 0.00 71 1017.0
20260506094231 15 155 3.2 6.4 0.00 0.30 0.00 74 1016.9
20260506093230 15 156 1.6 6.4 0.00 0.33 0.00 76 1016.8
20260506092230 15 182 3.2 6.4 0.00 0.33 0.00 76 1016.7
20260506091720 14 154 3.2 6.4 0.00 0.36 0.00 76 1016.5
20260506090230 14 167 1.6 4.8 0.00 0.41 0.00 78 1016.6
20260506085230 14 141 3.2 4.8 0.00 0.46 0.00 81 1016.4
20260506084230 14 132 1.6 4.8 0.00 0.48 0.00 82 1016.3
20260506083231 13 170 3.2 4.8 0.00 0.53 0.00 80 1016.3
20260506082230 13 191 1.6 4.8 0.00 0.56 0.00 75 1016.2
20260506081232 13 212 0.0 4.8 0.00 0.58 0.00 78 1016.1
20260506080230 13 162 1.6 9.7 0.00 0.58 0.00 78 1015.9
20260506073232 13 16 3.2 4.8 0.00 0.66 0.00 79 1015.6
20260506072705 13 346 4.8 11.3 0.00 0.69 0.00 77 1015.5
20260506071232 12 349 3.2 11.3 0.00 0.69 0.00 80 1015.4